Weather History for Chicago Executive, IL

Change the Weather History Date:

Wednesday, October 16, 2013

  Actual Average Record
Temperature  
Mean Temperature 52 °F 52 °F  
Max Temperature 55 °F 62 °F 79 °F (1998)
Min Temperature 48 °F 43 °F 35 °F (2003)
Degree Days  
Heating Degree Days 13 13  
Month to date heating degree days 83 173  
Since 1 July heating degree days 173 285  
Cooling Degree Days 0 0  
Month to date cooling degree days 22 11  
Year to date cooling degree days 918 789  
Growing Degree Days 1 (Base 50)    
Moisture  
Dew Point 44 °F    
Average Humidity 77    
Maximum Humidity 86    
Minimum Humidity 71    
Precipitation  
Precipitation T in 0.09 in 0.19 in (2009)
Month to date precipitation 1.66 1.58  
Year to date precipitation 24.56 27.27  
Sea Level Pressure  
Sea Level Pressure 29.90 in    
Wind  
Wind Speed 9 mph (WSW)    
Max Wind Speed 14 mph    
Max Gust Speed 21 mph    
Visibility 10 miles    
Events      
T = Trace of Precipitation, MM = Missing Value Source: NWS Daily Summary

Daily Weather History Graph

Daily Weather History Graph

Search for Another Location

Airport:

Trip Planner

Search our weather history database for the weather conditions in past years. The results will help you decide how hot, cold, wet, or windy it might be!

Date:

Astronomy

Oct. 16, 2013 Rise Set
Actual Time 7:05 AM CDT 6:07 PM CDT
Civil Twilight 6:37 AM CDT 6:36 PM CDT
Nautical Twilight 6:04 AM CDT 7:08 PM CDT
Astronomical Twilight 5:32 AM CDT 7:40 PM CDT
Moon 4:49 PM CDT (10/16) 4:30 AM CDT (10/16)
Length of Visible Light 11h 58m
Length of Day
11h 02m
Waxing Gibbous, 94% of the Moon is Illuminated
Oct 16
Waxing Gibbous
Oct 18
Full
Oct 26
Last Quarter
Nov 3
New
Nov 9
First Quarter

Hourly Weather History & Observations

Time (CDT) Temp. Dew Point Humidity Pressure Visibility Wind Dir Wind Speed Gust Speed Precip Events Conditions
12:52 AM 51.1 °F 42.1 °F 71% 29.86 in 10.0 mi WSW 8.1 mph - N/A   Clear
1:52 AM 50.0 °F 41.0 °F 71% 29.88 in 10.0 mi SW 5.8 mph - N/A   Clear
2:52 AM 48.9 °F 41.0 °F 74% 29.87 in 10.0 mi WSW 8.1 mph - N/A   Partly Cloudy
3:06 AM 48.2 °F 41.0 °F 76% 29.86 in 10.0 mi WSW 4.6 mph - N/A   Mostly Cloudy
3:52 AM 48.0 °F 41.0 °F 77% 29.86 in 10.0 mi SW 3.5 mph - N/A   Overcast
4:52 AM 50.0 °F 42.1 °F 74% 29.86 in 10.0 mi SSW 6.9 mph - N/A   Overcast
5:52 AM 50.0 °F 42.1 °F 74% 29.86 in 10.0 mi SW 8.1 mph - N/A   Overcast
6:52 AM 50.0 °F 43.0 °F 77% 29.85 in 10.0 mi SW 8.1 mph - N/A   Overcast
7:52 AM 51.1 °F 43.0 °F 74% 29.87 in 10.0 mi SW 8.1 mph - N/A   Overcast
8:52 AM 51.1 °F 43.0 °F 74% 29.88 in 10.0 mi WSW 11.5 mph - N/A   Overcast
9:52 AM 51.1 °F 44.1 °F 77% 29.89 in 10.0 mi WSW 12.7 mph 20.7 mph N/A   Overcast
10:40 AM 51.8 °F 44.6 °F 76% 29.90 in 8.0 mi WSW 9.2 mph - N/A   Overcast
10:52 AM 51.1 °F 46.0 °F 83% 29.91 in 9.0 mi WSW 10.4 mph 17.3 mph N/A   Overcast
11:52 AM 53.1 °F 46.0 °F 77% 29.91 in 10.0 mi WSW 12.7 mph 17.3 mph N/A   Overcast
12:52 PM 53.1 °F 46.0 °F 77% 29.91 in 10.0 mi WSW 12.7 mph - N/A   Overcast
1:21 PM 53.6 °F 46.4 °F 77% 29.90 in 10.0 mi West 12.7 mph - N/A   Overcast
1:52 PM 54.0 °F 46.0 °F 75% 29.90 in 10.0 mi WSW 10.4 mph - N/A   Overcast
2:52 PM 54.0 °F 46.0 °F 75% 29.90 in 10.0 mi WSW 12.7 mph - N/A   Overcast
3:52 PM 54.0 °F 45.0 °F 72% 29.90 in 10.0 mi West 11.5 mph - N/A   Overcast
4:52 PM 53.1 °F 45.0 °F 74% 29.90 in 10.0 mi West 11.5 mph 17.3 mph N/A   Overcast
5:52 PM 53.1 °F 45.0 °F 74% 29.91 in 10.0 mi West 5.8 mph - N/A   Overcast
6:52 PM 53.1 °F 45.0 °F 74% 29.93 in 10.0 mi WSW 8.1 mph - N/A   Overcast
7:52 PM 53.1 °F 45.0 °F 74% 29.94 in 10.0 mi West 5.8 mph - N/A   Overcast
8:44 PM 51.8 °F 46.4 °F 82% 29.94 in 10.0 mi West 10.4 mph 16.1 mph N/A   Overcast
8:52 PM 52.0 °F 46.0 °F 80% 29.95 in 10.0 mi West 9.2 mph - N/A   Overcast
9:52 PM 52.0 °F 46.0 °F 80% 29.95 in 10.0 mi West 5.8 mph - N/A   Overcast
10:35 PM 51.8 °F 46.4 °F 82% 29.95 in 10.0 mi West 5.8 mph - N/A   Overcast
10:52 PM 52.0 °F 46.0 °F 80% 29.95 in 10.0 mi WSW 5.8 mph - N/A   Overcast
11:04 PM 51.8 °F 46.4 °F 82% 29.94 in 10.0 mi West 6.9 mph - N/A   Overcast
11:52 PM 51.1 °F 46.9 °F 86% 29.94 in 10.0 mi West 5.8 mph - 0.00 in   Overcast